Date,TemperatureHighF,TemperatureAvgF,TemperatureLowF,DewpointHighF,DewpointAvgF,DewpointLowF,HumidityHigh,HumidityAvg,HumidityLow,PressureMaxIn,PressureMinIn,WindSpeedMaxMPH,WindSpeedAvgMPH,GustSpeedMaxMPH,PrecipitationSumIn
2013-3-1,46,41,34,33,31,25,77,67,58,29.86,29.70,7,3,16,0.00
2013-3-2,40,34,27,27,24,22,84,67,58,29.87,29.79,8,3,18,0.00
2013-3-3,39,34,29,24,22,20,73,62,54,29.89,29.78,9,4,22,0.00
2013-3-4,43,33,26,24,20,17,74,59,46,30.02,29.89,10,4,22,0.00
2013-3-5,46,35,24,32,24,18,81,65,41,30.09,29.84,6,2,18,0.00
2013-3-6,40,37,34,36,34,29,94,88,70,29.96,29.62,14,7,32,0.94
2013-3-7,50,42,34,33,30,27,77,61,47,30.13,29.96,9,4,23,0.00
2013-3-8,48,42,34,32,28,24,70,58,51,30.25,30.10,11,6,30,0.00
2013-3-9,63,45,33,31,28,24,78,53,27,30.33,30.23,5,2,17,0.00
2013-3-10,60,44,27,38,29,19,92,61,22,30.34,30.23,8,2,19,0.00
2013-3-11,57,49,41,50,44,37,93,84,75,30.27,29.96,11,4,26,0.00
2013-3-12,59,52,42,55,47,32,94,82,63,29.98,29.69,18,7,37,0.64
2013-3-13,50,40,29,37,29,21,93,65,37,30.04,29.88,8,3,23,0.01
2013-3-14,45,37,30,23,20,17,66,51,36,30.10,30.00,13,5,31,0.00
2013-3-15,56,40,26,33,26,19,80,58,36,30.08,29.77,10,2,19,0.00
2013-3-16,56,43,36,42,36,31,83,75,59,29.93,29.66,8,3,19,0.00
2013-3-17,41,38,35,33,30,25,88,75,60,30.28,29.92,5,2,13,0.00
2013-3-18,40,37,35,36,29,21,94,75,56,30.33,29.87,8,3,17,0.46
2013-3-19,59,45,38,43,34,17,94,71,27,29.91,29.70,9,2,21,0.01
2013-3-20,52,41,26,30,23,20,82,51,29,29.99,29.77,9,3,23,0.00
2013-3-21,43,35,28,27,19,12,75,52,37,29.89,29.73,8,4,23,0.00
2013-3-22,47,36,27,24,20,13,64,52,39,30.00,29.87,8,4,23,0.00
2013-3-23,53,39,24,30,25,19,82,58,39,30.02,29.90,8,2,20,0.00
2013-3-24,43,37,28,32,26,21,87,65,50,30.00,29.67,7,1,15,0.00
2013-3-25,36,34,31,34,32,29,94,92,86,29.69,29.51,5,1,13,0.66
2013-3-26,52,40,27,37,32,26,94,75,45,29.96,29.69,7,2,19,0.37
2013-3-27,52,44,37,35,31,28,75,62,45,30.09,29.95,14,4,25,0.00
2013-3-28,50,42,31,34,31,27,86,65,46,30.20,30.07,8,3,20,0.00
2013-3-29,57,45,32,36,32,26,81,60,42,30.24,30.13,7,2,15,0.00
2013-3-30,60,46,34,38,33,30,87,63,39,30.23,30.10,8,1,15,0.00
2013-3-31,54,47,37,49,42,32,94,85,69,30.13,29.73,11,2,22,0.03